Firefly 4

operational
NORAD ID: 65320 Int'l Des: 2025-188 Owner: PIXX Country: IN
LEOCIRCULARRETROGRADESSO

About Firefly 4

Description loading...

Live Position

Loading 3D Globe...

Upcoming Passes

Altitude History

Altitude vs Time

uPlot chart will show altitude changes over time

Two-Line Element Set

1 65320U 25188F 25315.25735619 .00003513 00000-0 34286-3 0 9992
2 65320 97.7611 28.8757 0012564 165.8641 194.2932 14.93003922 11392
Epoch: Nov 11, 2025 • Age: 25 hours

Current Status

Altitude 614.7 km
Velocity 7.55 km/s
Sub-Earth Point -70.27°S, 24.62°E
Launch Date Aug 26, 2025
Age 0.2 years
Type other

Technical Details

Classification Payload
Mass 60.00 kg
Dry Mass 60.00 kg
Total Mass 60.00 kg
Length 0.50 m
Diameter 0.30 m
Span 2.00 m
Shape Box + 2 pan
Manufacturer PIXX
Bus Type Firefly
Phase Status In Orbit
Owner/State PIXX/IN

Large Constellations

Loading constellations...